Regional Weather Roundup
Issued by NWS Green Bay, WI

Home | Current Version | Previous Version | Graphics & Text | Print | Product List | Glossary Off
Versions: 1 2 3 4 5 6 7 8 9 10 11 12 13 14 15 16 17 18 19 20 21 22 23 24 25 26 27 28 29 30 31 32 33 34 35 36 37 38 39 40 41 42 43 44 45 46 47 48 49 50

123
ASUS43 KGRB 211511
RWRGRB

NORTH-CENTRAL AND NORTHEAST WISCONSIN REGIONAL WEATHER ROUNDUP
NATIONAL WEATHER SERVICE GREEN BAY WI
1000 AM CDT MON AUG 21 2017

WIZ005-009-010>012-018-019-211600-
NORTH CENTRAL WISCONSIN

CITY           SKY/WX    TMP DP  RH WIND       PRES   REMARKS
IRONWOOD       CLOUDY    70  56  61 VRB3      30.07R
MANITOWISH WTR MOSUNNY   70  57  62 E3        30.08S
ARBOR VITAE    SUNNY     72  55  55 CALM      30.09R
EAGLE RIVER    SUNNY     71  52  50 SE3       30.09R
LAND O LAKES   CLOUDY    70  53  53 CALM      30.11R
RHINELANDER    CLOUDY    71  57  61 E3        30.08F
PHILLIPS       PTSUNNY   69  58  68 SE3       30.07R
ANTIGO         CLOUDY    70  61  73 CALM      30.08S
TOMAHAWK         N/A     70  58  65 CALM      30.09R
MERRILL        CLOUDY    70  63  78 CALM      30.08R
$$

WIZ013-073-211600-
NORTHEAST WISCONSIN

CITY           SKY/WX    TMP DP  RH WIND       PRES   REMARKS
IRON MOUNTAIN  SUNNY     73  56  54 W3        30.05F
MARINETTE      CLOUDY    75  63  66 SE3       30.05S
OCONTO         PTSUNNY   73  65  74 NE3       30.05S
$$

WIZ017-030-035>037-045-211600-
CENTRAL WISCONSIN

CITY           SKY/WX    TMP DP  RH WIND       PRES   REMARKS
MEDFORD        CLOUDY    68  61  78 E7        30.07F
WAUSAU         LGT RAIN  67  63  87 E6        30.05F
MOSINEE        CLOUDY    66  66 100 CALM      30.08S FOG
MARSHFIELD     CLOUDY    73  67  81 E6        30.05F
WISC RAPIDS    CLOUDY    71  69  93 E5        30.06F
STEVENS POINT  CLOUDY    69  68  99 CALM      30.06F
WAUPACA        CLOUDY    73  69  87 CALM      30.06F
SHAWANO        CLOUDY    74  66  75 E3        30.05F
CLINTONVILLE   CLOUDY    72  68  88 CALM      30.05F
WAUTOMA        CLOUDY    70  67  90 MISG      30.08S
$$

WIZ038-039-048-051-211600-
FOX VALLEY

CITY           SKY/WX    TMP DP  RH WIND       PRES   REMARKS
NWS GREEN BAY  LGT RAIN  72  71  97 SW3       30.06S
APPLETON       CLOUDY    72  68  88 W5        30.06S
OSHKOSH        CLOUDY    74  67  78 VRB5      30.07R
FOND DU LAC    CLOUDY    75  68  78 W3        30.07S
$$

WIZ022-050-052-211600-
EAST CENTRAL WISCONSIN

CITY           SKY/WX    TMP DP  RH WIND       PRES   REMARKS
EPHRAIM        FAIR      73  66  77 CALM      30.04S
WASHINGTON ISL FAIR      73  62  67 N3        30.04S
STURGEON BAY   CLOUDY    74  70  87 VRB5      30.06R
MANITOWOC      MOSUNNY   76  66  71 W7        30.06S
SHEBOYGAN      CLOUDY    76  70  82 NW8       30.06R
$$

LMZ563-521-522-541>543-211600-
LAKESHORE

STATION/POSITION TIME  TEMP    WIND        PRES    VSBY  WAVE
                       AIR SEA DIR/SP/G                  HT/PER
                 (UTC) (F)     (DEG/KT/KT) (MB)    (MI)  (FT/S)
SHEBOYGAN LKSHOR 1500   71     130/  1/  2 1017.4R
KEWAUNEE LKSHORE 1448   74     270/  3/  3 1016.7S
NORTHPORT PIER   1440   73     310/  3/  4 1016.9F
N MID LAKE BUOY  1450   69 68   CALM  /  2 1017.4F         1/ 4
S GREEN BAY BUOY 1500   70 72  270/  4/  4 1017.4
SISTER BAY LKSHO 1504   76      30/  7/  8   N/A
MENOMINEE LKSHOR 1448   71     120/  2/  3 1017.2R
$$




USA.gov is the U.S. government's official web portal to all federal, state and local government web resources and services.